Elephant Butte, NM

5:41 AM MST on February 26, 2017 (GMT -0700)
Truth Or Consequences Municipal

Weather History for KTCS - March, 2013

Change the Weather History Date:

Saturday, March 23, 2013

  Actual Average Record
Temperature  
Mean Temperature 54 °F -  
Max Temperature 70 °F 68 °F 80 °F (1998)
Min Temperature 47 °F 39 °F 30 °F (2006)
Degree Days  
Heating Degree Days 11    
Month to date heating degree days  
Since 1 July heating degree days  
Cooling Degree Days 0    
Month to date cooling degree days  
Year to date cooling degree days  
Growing Degree Days 4 (Base 50)    
Moisture  
Dew Point -4 °F    
Average Humidity 17    
Maximum Humidity 31    
Minimum Humidity 2    
Precipitation  
Precipitation 0.00 in - 0.21 in (2007)
Month to date precipitation 0.06  
Year to date precipitation 0.14  
Sea Level Pressure  
Sea Level Pressure 29.69 in    
Wind  
Wind Speed 13 mph (WNW)    
Max Wind Speed 40 mph    
Max Gust Speed 52 mph    
Visibility 10 miles    
Events      
T = Trace of Precipitation, MM = Missing Value Source: NWS Daily Summary

Daily Weather History Graph

Daily Weather History Graph

Search for Another Location

Airport or City:

Trip Planner

Search our weather history database for the weather conditions in past years. The results will help you decide how hot, cold, wet, or windy it might be!

Date:

Astronomy

Mar. 23, 2013 Rise Set
Actual Time 7:08 AM MDT 7:23 PM MDT
Civil Twilight 6:43 AM MDT 7:47 PM MDT
Nautical Twilight 6:14 AM MDT 8:16 PM MDT
Astronomical Twilight 5:45 AM MDT 8:46 PM MDT
Moon 4:01 PM MDT (3/23) 4:36 AM MDT (3/23)
Length of Visible Light 13h 04m
Length of Day
12h 14m
Waxing Gibbous, 85% of the Moon is Illuminated
Mar 23
Waxing Gibbous
Mar 27
Full
Apr 2
Last Quarter
Apr 10
New
Apr 18
First Quarter

Hourly Weather History & Observations

Time (MDT) Temp. Windchill Dew Point Humidity Pressure Visibility Wind Dir Wind Speed Gust Speed Precip Events Conditions
12:53 AM 48.9 °F - 14.0 °F 25% 29.64 in 10.0 mi West 4.6 mph - N/A   Clear
1:53 AM 51.1 °F - 17.1 °F 26% 29.63 in 10.0 mi WSW 6.9 mph - N/A   Clear
2:53 AM 52.0 °F - 18.0 °F 26% 29.62 in 10.0 mi WSW 5.8 mph - N/A   Clear
3:53 AM 50.0 °F - 19.9 °F 31% 29.61 in 10.0 mi South 5.8 mph - N/A   Clear
4:53 AM 48.9 °F - 19.9 °F 32% 29.60 in 10.0 mi SSW 3.5 mph - N/A   Clear
5:53 AM 48.0 °F - 19.0 °F 32% 29.62 in 10.0 mi West 5.8 mph - N/A   Clear
6:53 AM 48.0 °F - 17.1 °F 29% 29.65 in 10.0 mi West 9.2 mph - N/A   Clear
7:53 AM 50.0 °F - 15.1 °F 25% 29.66 in 10.0 mi West 8.1 mph - N/A   Clear
8:53 AM 57.0 °F - 8.1 °F 14% 29.67 in 10.0 mi West 10.4 mph - N/A   Clear
9:53 AM 61.0 °F - -2.9 °F 8% 29.67 in 10.0 mi WNW 23.0 mph 27.6 mph N/A   Clear
10:53 AM 62.1 °F - -5.1 °F 7% 29.68 in 10.0 mi West 24.2 mph 34.5 mph N/A   Clear
11:53 AM 66.0 °F - -9.9 °F 5% 29.64 in 10.0 mi West 35.7 mph 43.7 mph N/A   Clear
12:53 PM 68.0 °F - -8.0 °F 5% 29.63 in 10.0 mi West 25.3 mph 38.0 mph N/A   Clear
1:38 PM 69.8 °F - -14.8 °F 4% 29.78 in 3.0 mi WNW 27.6 mph 46.0 mph N/A   Haze
1:53 PM 68.0 °F - -15.0 °F 4% 29.60 in 10.0 mi West 31.1 mph 44.9 mph N/A   Clear
2:01 PM 68.0 °F - -16.6 °F 4% 29.78 in 6.0 mi West 25.3 mph 41.4 mph N/A   Haze
2:53 PM 69.1 °F - -25.1 °F 4% 29.60 in 10.0 mi WNW 28.8 mph 39.1 mph N/A   Clear
3:53 PM 68.0 °F - -26.0 °F 4% 29.62 in 10.0 mi WNW 23.0 mph 36.8 mph N/A   Clear
4:53 PM 66.0 °F - -18.9 °F 4% 29.64 in 10.0 mi NW 18.4 mph 33.4 mph N/A   Clear
5:53 PM 61.0 °F - -18.0 °F 4% 29.68 in 10.0 mi NNW 21.9 mph 32.2 mph N/A   Clear
6:53 PM 59.0 °F - -20.9 °F 4% 29.72 in 10.0 mi NNW 19.6 mph 33.4 mph N/A   Clear
7:53 PM 55.0 °F - -18.0 °F 5% 29.76 in 10.0 mi NW 19.6 mph 26.5 mph N/A   Clear
8:53 PM 52.0 °F - -16.1 °F 6% 29.79 in 10.0 mi NW 16.1 mph 26.5 mph N/A   Clear
9:53 PM 48.0 °F - -11.9 °F 8% 29.85 in 10.0 mi NNE 12.7 mph - N/A   Clear
10:53 PM 39.9 °F 35.8 °F -14.1 °F 10% 29.91 in 10.0 mi ENE 5.8 mph - N/A   Clear
11:53 PM 37.9 °F 34.4 °F -14.1 °F 10% 29.93 in 10.0 mi NE 4.6 mph - N/A   Clear